Regional Weather Roundup
Issued by NWS

Home | Current Version | Previous Version | Text Only | Print | Product List | Glossary On
Versions: 1 2 3 4 5 6 7 8 9 10 11 12 13 14 15 16 17 18 19 20 21 22 23 24 25 26 27 28 29 30 31 32 33 34 35 36 37 38 39 40 41 42 43 44 45
000
ASUS45 KBOU 021707
RWRCO

WEATHER ROUNDUP FOR COLORADO
NATIONAL WEATHER SERVICE DENVER/BOULDER CO
1100 AM MDT THU OCT 02 2014

NOTE: "FAIR" INDICATES FEW OR NO CLOUDS BELOW 12000 FEET WITH NO
SIGNIFICANT WEATHER AND/OR OBSTRUCTIONS TO VISIBILITY.

COZ001>005-013-030-031-021800-
...NORTHWEST COLORADO...

CITY           SKY/WX    TMP DP  RH WIND       PRES   REMARKS
CRAIG          SUNNY     49  36  61 N3        30.30F
HAYDEN         SUNNY     43  28  56 NW5       30.30S
MEEKER         SUNNY     42  35  76 CALM      30.31F
MOUNT WERNER   NOT AVBL
STEAMBOAT SPGS CLOUDY    39  31  72 E3        30.31S
WALDEN         SUNNY     37  25  60 SW13      30.27R
$$

COZ006>008-011-021800-
...WEST CENTRAL VALLEYS...

CITY           SKY/WX    TMP DP  RH WIND       PRES   REMARKS
GRAND JUNCTION SUNNY     50  37  61 SE3       30.31F
MONTROSE       PTSUNNY   48  37  65 CALM      30.35R
EAGLE          MOSUNNY   45  34  65 CALM      30.34F
RIFLE          MOSUNNY   47  34  60 CALM      30.32F
DELTA          RAIN      49  41  73 CALM      30.34S
NUCLA          SUNNY     48  32  53 NW3       30.35S
$$

COZ017>023-064>068-021800-
...SOUTHWEST COLORADO...

CITY           SKY/WX    TMP DP  RH WIND       PRES   REMARKS
DURANGO        SUNNY     48  31  51 VRB3      30.29R
CORTEZ         SUNNY     54  28  36 W10       30.28S
PAGOSA SPRINGS SUNNY     50  11  21 CALM      30.28R
TELLURIDE      SUNNY    N/A N/A N/A CALM      30.34R
WOLF CREEK PAS SUNNY     32   5  32 E3        30.38R
$$

COZ009-010-012-014-032>034-037-058>063-021800-
...CENTRAL COLORADO...

CITY           SKY/WX    TMP DP  RH WIND       PRES   REMARKS
ASPEN          MOSUNNY   40  27  59 VRB3      30.32F
BUENA VISTA    SUNNY     46  17  31 NW20G25   30.25F
COPPER MTN     CLOUDY    27  21  80 W14       30.34F HAZE    WCI  15
BERTHOUD PASS  CLOUDY    16  14  93 NW24G33   30.31S WCI  -3
COTTONWOOD PAS SUNNY     41  12  30 W7G17     30.29S
GUNNISON       SUNNY     41  25  52 W8        30.34S
KREMMLING      PTSUNNY   41  25  52 SW5       30.32S
LEADVILLE      PTSUNNY   34  19  54 N9        30.30F WCI  27
MONARCH PASS   PTSUNNY   23  21  93 MISG      30.45R
SALIDA         SUNNY     49  20  31 NW3       30.32S
SUNLIGHT       MOSUNNY  N/A N/A N/A CALM      30.38S
WILKERSON PASS NOT AVBL
$$

COZ069>075-021800-
...SAN LUIS VALLEY/SANGRE DE CRISTO MOUNTAINS...

CITY           SKY/WX    TMP DP  RH WIND       PRES   REMARKS
ALAMOSA        SUNNY     48  20  32 N12       30.26S
LA VETA PASS   MOSUNNY   39  25  56 S6        30.28R
SAGUACHE       SUNNY     45  27  49 NW14G20   30.28S
$$

COZ035-036-038>040-021800-
...NORTHERN COLORADO FRONT RANGE...

CITY           SKY/WX    TMP DP  RH WIND       PRES   REMARKS
DENVER INTL AP MOSUNNY   53  33  46 S8        30.13F
DMNS CITY PARK   N/A     56  32  39 SW3G10    30.12F
AURORA         MOSUNNY   53  29  40 SW8       30.14F
FRONT RANGE AP MOSUNNY   55  36  47 S8        30.14
ERIE MUNI ARPT SUNNY     57  32  38 SE7       30.11F
BOULDER MUN AP SUNNY     55  36  47 NE5       30.10F
CENTENNIAL     MOSUNNY   51  28  41 W7        30.14F
BROOMFIELD     MOSUNNY   55  34  44 S12       30.13F
FORT COLLINS   SUNNY     54  37  54 SE7       30.13F
LONGMONT       SUNNY     57  39  51 E8        30.12F
$$

COZ041-046-047-076>085-087-088-021800-
...PIKES PEAK/PALMER DIVIDE AND SOUTHERN FOOTHILLS...

CITY           SKY/WX    TMP DP  RH WIND       PRES   REMARKS
COLO. SPRINGS  MOSUNNY   52  30  43 S6        30.18S
A. F. ACADEMY  SUNNY     54  18  25 N8        30.17S
ELLICOTT       NOT AVBL
FALCON         SUNNY     52  21  29 N10G17    30.20S
FORT CARSON    SUNNY     53  32  45 S3        30.16S
LIMON          SUNNY     51  35  54 N14G23    30.15R
MONUMENT HILL  SUNNY     46  27  46 NW10G17   30.18S
TRINIDAD       SUNNY     54  33  45 N9        30.19S
$$

COZ042>045-048>051-090-091-021800-
...NORTHEAST COLORADO...

CITY           SKY/WX    TMP DP  RH WIND       PRES   REMARKS
GREELEY ARPT   SUNNY     54  36  50 CALM      30.13F
AKRON          SUNNY     54  37  52 NW21G30   30.11F
BURLINGTON     MOSUNNY   56  39  53 NW20G29   30.09S
WRAY           MOSUNNY   59  41  52 NW15G24   30.08F
STERLING       SUNNY     61  39  44 N15G24    30.08F
HOLYOKE        SUNNY     59  41  51 NW13G21   30.08F
FORT MORGAN    SUNNY     56  36  47 NW6       30.12F
$$

COZ086-089-092>099-021800-
...SOUTHEAST COLORADO...

CITY           SKY/WX    TMP DP  RH WIND       PRES   REMARKS
PUEBLO         SUNNY     57  32  38 VRB7      30.15S
LA JUNTA       SUNNY     60  35  39 N16       30.15R
LAMAR          SUNNY     60  40  47 N13       30.10S
SPRINGFIELD      N/A     59  37  44 N23       30.10S
$$



USA.gov is the U.S. government's official web portal to all federal, state and local government web resources and services.